TimeCST,TemperatureF,Dew PointF,Humidity,Sea Level PressureIn,VisibilityMPH,Wind Direction,Wind SpeedMPH,Gust SpeedMPH,PrecipitationIn,Events,Conditions,WindDirDegrees,DateUTC
12:08 AM,17.6,12.2,79,30.09,8.0,WNW,21.9,-,N/A,,Mostly Cloudy,300,2013-01-06 06:08:00
12:17 AM,17.6,12.2,79,30.09,9.0,WNW,20.7,-,N/A,,Mostly Cloudy,300,2013-01-06 06:17:00
12:54 AM,17.1,14.0,88,30.20,9.0,West,12.7,-,N/A,,Overcast,280,2013-01-06 06:54:00
1:54 AM,18.0,15.1,88,30.20,10.0,West,10.4,-,N/A,,Overcast,280,2013-01-06 07:54:00
2:54 AM,18.0,15.1,88,30.20,10.0,West,9.2,-,N/A,,Overcast,270,2013-01-06 08:54:00
3:54 AM,18.0,15.1,88,30.21,9.0,SW,8.1,-,N/A,,Overcast,220,2013-01-06 09:54:00
4:39 AM,17.6,15.8,93,30.10,5.0,SW,6.9,-,N/A,,Overcast,230,2013-01-06 10:39:00
4:54 AM,18.0,16.0,92,30.20,4.0,SW,5.8,-,N/A,,Overcast,230,2013-01-06 10:54:00
5:13 AM,17.6,15.8,93,30.09,2.0,SW,6.9,-,N/A,,Overcast,230,2013-01-06 11:13:00
5:24 AM,17.6,15.8,93,30.08,1.8,SW,4.6,-,N/A,,Overcast,230,2013-01-06 11:24:00
5:39 AM,17.6,15.8,93,30.07,2.0,SSW,3.5,-,N/A,,Overcast,200,2013-01-06 11:39:00
5:54 AM,17.1,15.1,92,30.17,1.2,SW,5.8,-,N/A,,Overcast,220,2013-01-06 11:54:00
6:54 AM,16.0,15.1,96,30.15,1.2,South,3.5,-,N/A,,Overcast,190,2013-01-06 12:54:00
7:04 AM,17.6,15.8,93,30.04,1.2,South,5.8,-,N/A,,Overcast,170,2013-01-06 13:04:00
7:34 AM,15.8,15.8,100,30.03,0.8,SSE,6.9,-,N/A,,Overcast,160,2013-01-06 13:34:00
7:54 AM,16.0,14.0,92,30.13,0.8,South,5.8,-,N/A,,Mist,170,2013-01-06 13:54:00
8:32 AM,15.8,12.2,86,30.01,0.2,SSE,10.4,-,N/A,Fog,Light Freezing Fog,150,2013-01-06 14:32:00
8:43 AM,15.8,12.2,86,30.01,0.5,SSE,10.4,-,N/A,Fog,Light Freezing Fog,150,2013-01-06 14:43:00
8:54 AM,14.0,12.0,92,30.11,0.5,SSE,8.1,-,N/A,Fog,Light Freezing Fog,160,2013-01-06 14:54:00
9:36 AM,15.8,12.2,86,29.99,1.2,SSE,11.5,-,N/A,,Overcast,160,2013-01-06 15:36:00
9:54 AM,15.1,12.9,91,30.10,2.0,SSE,9.2,-,N/A,,Overcast,160,2013-01-06 15:54:00
10:08 AM,15.8,12.2,86,29.99,3.0,South,11.5,-,N/A,,Overcast,170,2013-01-06 16:08:00
10:54 AM,15.1,12.0,88,30.06,8.0,SSE,11.5,-,N/A,,Mostly Cloudy,160,2013-01-06 16:54:00
11:28 AM,17.6,12.2,79,29.93,8.0,SE,8.1,-,N/A,,Clear,140,2013-01-06 17:28:00
11:54 AM,18.0,14.0,84,30.00,8.0,SE,12.7,-,N/A,,Clear,130,2013-01-06 17:54:00
12:54 PM,21.0,17.1,85,29.94,9.0,SSE,12.7,18.4,N/A,,Clear,160,2013-01-06 18:54:00
1:54 PM,25.0,17.1,72,29.88,10.0,South,12.7,23.0,N/A,,Clear,180,2013-01-06 19:54:00
2:54 PM,27.0,18.0,69,29.83,10.0,South,13.8,-,N/A,,Clear,180,2013-01-06 20:54:00
3:54 PM,27.0,18.0,69,29.79,10.0,South,20.7,25.3,N/A,,Clear,190,2013-01-06 21:54:00
4:54 PM,27.0,17.1,66,29.78,10.0,SSW,13.8,23.0,N/A,,Clear,200,2013-01-06 22:54:00
5:54 PM,27.0,18.0,69,29.75,10.0,SW,18.4,27.6,N/A,,Partly Cloudy,220,2013-01-06 23:54:00
6:54 PM,27.0,17.1,66,29.75,10.0,SW,19.6,-,N/A,,Clear,220,2013-01-07 00:54:00
7:54 PM,28.9,18.0,64,29.73,10.0,SW,19.6,23.0,N/A,,Clear,220,2013-01-07 01:54:00
8:54 PM,32.0,19.9,61,29.73,10.0,SW,20.7,29.9,N/A,,Scattered Clouds,230,2013-01-07 02:54:00
9:54 PM,33.1,21.0,61,29.73,10.0,WSW,21.9,-,N/A,,Clear,240,2013-01-07 03:54:00
10:54 PM,32.0,21.9,66,29.73,10.0,WSW,17.3,25.3,N/A,,Clear,240,2013-01-07 04:54:00
11:54 PM,28.9,19.9,69,29.72,10.0,SW,17.3,-,N/A,,Clear,230,2013-01-07 05:54:00